Showing default

OPS 9313 (IDSCS 3), 2217

Orbit data source: Space-Track

OPS 9313 (IDSCS 3), 2217 is a payload satellite owned by USAF SSD (US) in GEO that was launched on Thu, 16 Jun 1966 UTC via a TITAN IIIC launch vehicle from the Air Force Eastern Test Range (AFETR). Payload-class satellites include a variety of spacecraft equipped with specific instruments for various scientific and technological missions. These include communications satellites like Starlink; space stations such as the ISS; scientific satellites like the Hubble; Earth observation satellites from companies like Planet Labs, Umbra, and HawkEye 360; GPS; miniature CubeSats for education and research; and military/defense satellites.

Loading next visibility...
Identifier
2217, 1966-053D
Orbit
GEO
Country
Flag of USUS
Related business
Manufacturer
Philco-Ford WDL
Mission
Non-operational spacecraft
Bus & Motor
IDCSP, Unknown motor
Mass
45 kg wet, 45 kg dry
Launch date (UTC)
1966-06-16 (60 years ago)
Launch vehicle
TITAN IIIC
Launch site
Air Force Eastern Test Range (AFETR)
Object type
Payload
Rocket body
Debris
Shape & HBR
ICO POLY, 0.5 m
Radar Cross Section
Medium (>0.1 m² and <1 m²)

Expand to show TLE details & history
Last TLE update: 2 days ago

TLE from 2 days ago
0 OPS 9313 (IDSCS 3)
1 02217U 66053D   26205.78954510 -.00000061  00000-0  00000-0 0  9994
2 02217   8.7043  43.7939 0035552 210.6692 149.1613  1.07754532139920
Epoch: 2026-07-24T18:56Z
TLE epoch observation values (Epoch: 2026-07-24T18:56:56.696Z)
Latitude
0.00001°
Longitude
177.09012°
Altitude
33,933.311 km
Speed
3.14 km/s
True Right ascension
02h 55m 20s
True Declination
0° 00' 00"
Sunlit
Object was in daylight at epoch
Visualization orbit readout
Latitude
Unknown
Longitude
Unknown
Altitude
Unknown
Speed
Unknown
Apparent Right ascension
Unknown
Apparent Declination
Unknown
Sunlit
N/A
Visualization observer readout
Local Sidereal Time
00:10:51
Azimuth
Unknown
Elevation
Unknown
Doppler factor
Unknown
Orbital elements
Apogee altitude
33,955.227 km
Perigee altitude
33,669.457 km
Semi-major axis
40,190.479 km
Eccentricity
0.00356
Inclination
8.7043°
RAAN
43.7939°
Arg. of periapsis
210.6692°
True anomaly
149.36935°
Mean anomaly
149.1613°
Eccentric anomaly
149.2654°
Mean motion
0.26938 °/min
Orbital period
1,336.42 mins
BSTAR
0
Loading maneuver chart data...
Computing Atmospheric mass density...
Loading historical data...
Loading historical data...
Loading historical data...
Loading historical data...
Loading historical data...
Loading historical data...
Loading historical data...

Documentation

Showing up to 5 results
|